Weather History for Camdenton, MO

Change the Weather History Date:

Saturday, February 11, 2012

  Actual Average (KAIZ) Record (KAIZ)
Temperature  
Mean Temperature 21 °F -  
Max Temperature 30 °F 45 °F 69 °F (1999)
Min Temperature 12 °F 27 °F 1 °F (2014)
Degree Days  
Heating Degree Days 44    
Moisture  
Dew Point 4 °F    
Average Humidity 52    
Maximum Humidity 79    
Minimum Humidity 27    
Precipitation  
Precipitation 0.00 in - - ()
Sea Level Pressure  
Sea Level Pressure 30.56 in    
Wind  
Wind Speed 11 mph ()    
Max Wind Speed 18 mph    
Max Gust Speed 24 mph    
Visibility 10.0 miles    
Events      
Averages and records for this station are not official NWS values.
T = Trace of Precipitation, MM = Missing Value Source: Averaged Metar Reports

Daily Weather History Graph

Daily Weather History Graph

Search for Another Location

Airport:

Trip Planner

Search our weather history database for the weather conditions in past years. The results will help you decide how hot, cold, wet, or windy it might be!

Date:

Astronomy

Feb. 11, 2012 Rise Set
Actual Time 7:05 AM CST 5:44 PM CST
Civil Twilight 6:38 AM CST 6:11 PM CST
Nautical Twilight 6:07 AM CST 6:42 PM CST
Astronomical Twilight 5:37 AM CST 7:13 PM CST
Moon 10:27 PM CST (2/11) 8:53 AM CST (2/11)
Length of Visible Light 11h 33m
Length of Day
10h 38m
Waning Gibbous, 82% of the Moon is Illuminated
Feb 11
Waning Gibbous
Feb 14
Last Quarter
Feb 21
New
Feb 29
First Quarter
Mar 8
Full

Hourly Weather History & Observations

Time (CST) Temp. Windchill Dew Point Humidity Pressure Visibility Wind Dir Wind Speed Gust Speed Precip Events Conditions
12:15 AM 17.6 °F 3.7 °F 8.6 °F 68% 30.37 in 10.0 mi NW 13.8 mph 20.7 mph N/A   Overcast
12:35 AM 17.6 °F 3.7 °F 8.6 °F 68% 30.37 in 10.0 mi NNW 13.8 mph 20.7 mph N/A   Overcast
12:55 AM 17.6 °F 3.2 °F 6.8 °F 63% 30.39 in 10.0 mi NW 15.0 mph 20.7 mph N/A   Overcast
1:15 AM 17.6 °F 5.0 °F 8.6 °F 68% 30.39 in 10.0 mi NW 11.5 mph 19.6 mph N/A   Overcast
1:35 AM 17.6 °F 4.3 °F 6.8 °F 63% 30.40 in 10.0 mi NW 12.7 mph 19.6 mph N/A   Overcast
1:55 AM 15.8 °F 2.7 °F 5.0 °F 62% 30.41 in 10.0 mi NW 11.5 mph 18.4 mph N/A   Overcast
2:15 AM 14.0 °F -0.2 °F 5.0 °F 67% 30.41 in 10.0 mi NW 12.7 mph 18.4 mph N/A   Scattered Clouds
2:35 AM 14.0 °F -0.8 °F 5.0 °F 67% 30.43 in 10.0 mi NW 13.8 mph 19.6 mph N/A   Scattered Clouds
2:55 AM 14.0 °F -0.2 °F 6.8 °F 73% 30.45 in 10.0 mi WNW 12.7 mph 17.3 mph N/A   Scattered Clouds
3:15 AM 14.0 °F -0.8 °F 6.8 °F 73% 30.46 in 10.0 mi NW 13.8 mph 19.6 mph N/A   Scattered Clouds
3:35 AM 14.0 °F -0.2 °F 6.8 °F 73% 30.46 in 10.0 mi NW 12.7 mph 20.7 mph N/A   Scattered Clouds
3:55 AM 14.0 °F 1.2 °F 6.8 °F 73% 30.47 in 10.0 mi NW 10.4 mph - N/A   Scattered Clouds
4:15 AM 14.0 °F 1.2 °F 6.8 °F 73% 30.48 in 10.0 mi NW 10.4 mph 18.4 mph N/A   Scattered Clouds
4:35 AM 14.0 °F 0.5 °F 6.8 °F 73% 30.49 in 10.0 mi NW 11.5 mph 18.4 mph N/A   Scattered Clouds
4:55 AM 14.0 °F 1.2 °F 6.8 °F 73% 30.50 in 10.0 mi NW 10.4 mph - N/A   Mostly Cloudy
5:15 AM 14.0 °F 1.2 °F 6.8 °F 73% 30.51 in 10.0 mi NW 10.4 mph - N/A   Mostly Cloudy
5:35 AM 14.0 °F 1.2 °F 6.8 °F 73% 30.52 in 10.0 mi WNW 10.4 mph - N/A   Scattered Clouds
5:55 AM 14.0 °F 1.2 °F 6.8 °F 73% 30.52 in 10.0 mi NW 10.4 mph 16.1 mph N/A   Clear
6:15 AM 14.0 °F 2.0 °F 5.0 °F 67% 30.53 in 10.0 mi NW 9.2 mph - N/A   Clear
6:35 AM 12.2 °F -1.0 °F 5.0 °F 73% 30.53 in 10.0 mi NW 10.4 mph - N/A   Clear
6:55 AM 12.2 °F -0.2 °F 5.0 °F 73% 30.54 in 10.0 mi NW 9.2 mph - N/A   Clear
7:15 AM 12.2 °F -1.8 °F 5.0 °F 73% 30.54 in 10.0 mi NW 11.5 mph - N/A   Clear
7:35 AM 12.2 °F -0.2 °F 6.8 °F 79% 30.56 in 10.0 mi WNW 9.2 mph - N/A   Clear
7:55 AM 14.0 °F 2.0 °F 6.8 °F 73% 30.57 in 10.0 mi NW 9.2 mph - N/A   Clear
8:15 AM 14.0 °F -0.8 °F 6.8 °F 73% 30.58 in 10.0 mi NW 13.8 mph - N/A   Clear
8:35 AM 14.0 °F -2.5 °F 6.8 °F 73% 30.61 in 10.0 mi NW 17.3 mph - N/A   Clear
8:55 AM 15.8 °F 2.7 °F 5.0 °F 62% 30.61 in 10.0 mi NW 11.5 mph 20.7 mph N/A   Clear
9:15 AM 17.6 °F 3.7 °F 5.0 °F 58% 30.62 in 10.0 mi NW 13.8 mph 19.6 mph N/A   Clear
9:35 AM 17.6 °F 5.7 °F 5.0 °F 58% 30.63 in 10.0 mi NNW 10.4 mph - N/A   Clear
9:55 AM 17.6 °F 5.7 °F 5.0 °F 58% 30.63 in 10.0 mi WNW 10.4 mph 17.3 mph N/A   Clear
10:15 AM 19.4 °F 6.0 °F 3.2 °F 49% 30.63 in 10.0 mi NW 13.8 mph 17.3 mph N/A   Clear
10:35 AM 21.2 °F 9.5 °F 3.2 °F 46% 30.63 in 10.0 mi WNW 11.5 mph 17.3 mph N/A   Clear
10:55 AM 21.2 °F 10.1 °F 1.4 °F 42% 30.63 in 10.0 mi NW 10.4 mph - N/A   Clear
11:15 AM 23.0 °F 11.1 °F 1.4 °F 39% 30.63 in 10.0 mi WNW 12.7 mph 18.4 mph N/A   Clear
11:35 AM 23.0 °F 8.7 °F 1.4 °F 39% 30.63 in 10.0 mi NW 18.4 mph 24.2 mph N/A   Clear
11:55 AM 23.0 °F 11.7 °F 1.4 °F 39% 30.62 in 10.0 mi WNW 11.5 mph - N/A   Clear
12:15 PM 24.8 °F 11.9 °F -0.4 °F 34% 30.61 in 10.0 mi WNW 16.1 mph - N/A   Clear
12:35 PM 26.6 °F 14.7 °F 1.4 °F 34% 30.61 in 10.0 mi NW 15.0 mph 20.7 mph N/A   Clear
12:55 PM 26.6 °F 15.7 °F -0.4 °F 31% 30.61 in 10.0 mi NNW 12.7 mph 21.9 mph N/A   Clear
1:15 PM 26.6 °F 14.7 °F -0.4 °F 31% 30.60 in 10.0 mi NNW 15.0 mph 23.0 mph N/A   Clear
1:35 PM 28.4 °F 18.5 °F 1.4 °F 31% 30.59 in 10.0 mi WNW 11.5 mph 21.9 mph N/A   Clear
1:55 PM 28.4 °F 19.1 °F 1.4 °F 31% 30.59 in 10.0 mi NW 10.4 mph 17.3 mph N/A   Clear
2:15 PM 28.4 °F 18.5 °F -0.4 °F 29% 30.59 in 10.0 mi NNW 11.5 mph 19.6 mph N/A   Clear
2:35 PM 28.4 °F 18.5 °F 1.4 °F 31% 30.59 in 10.0 mi NNW 11.5 mph - N/A   Clear
2:55 PM 30.2 °F 20.2 °F 1.4 °F 29% 30.59 in 10.0 mi NNW 12.7 mph 16.1 mph N/A   Clear
3:15 PM 30.2 °F 20.8 °F 1.4 °F 29% 30.59 in 10.0 mi NW 11.5 mph 18.4 mph N/A   Clear
3:35 PM 30.2 °F 20.8 °F 1.4 °F 29% 30.59 in 10.0 mi NW 11.5 mph - N/A   Clear
3:55 PM 30.2 °F 18.9 °F -0.4 °F 27% 30.59 in 10.0 mi NNW 16.1 mph - N/A   Clear
4:15 PM 30.2 °F 19.8 °F 1.4 °F 29% 30.59 in 10.0 mi NW 13.8 mph 17.3 mph N/A   Clear
4:35 PM 28.4 °F 21.2 °F -0.4 °F 29% 30.59 in 10.0 mi NNW 6.9 mph - N/A   Clear
4:55 PM 28.4 °F 18.5 °F 1.4 °F 31% 30.59 in 10.0 mi NW 11.5 mph - N/A   Clear
5:15 PM 28.4 °F 20.4 °F -0.4 °F 29% 30.59 in 10.0 mi NW 8.1 mph - N/A   Clear
5:35 PM 26.6 °F 16.8 °F 1.4 °F 34% 30.60 in 10.0 mi NW 10.4 mph - N/A   Clear
5:55 PM 26.6 °F 19.1 °F 3.2 °F 37% 30.59 in 10.0 mi WNW 6.9 mph - N/A   Clear
6:15 PM 24.8 °F 15.3 °F 3.2 °F 40% 30.58 in 10.0 mi NW 9.2 mph - N/A   Clear
6:35 PM 23.0 °F 13.9 °F 5.0 °F 46% 30.59 in 10.0 mi WNW 8.1 mph - N/A   Clear
6:55 PM 23.0 °F 13.9 °F 5.0 °F 46% 30.59 in 10.0 mi WNW 8.1 mph - N/A   Clear
7:15 PM 23.0 °F 12.4 °F 3.2 °F 43% 30.59 in 10.0 mi NW 10.4 mph - N/A   Clear
7:35 PM 23.0 °F 14.7 °F 5.0 °F 46% 30.59 in 10.0 mi WNW 6.9 mph - N/A   Clear
7:55 PM 23.0 °F 13.1 °F 5.0 °F 46% 30.59 in 10.0 mi WNW 9.2 mph - N/A   Clear
8:15 PM 23.0 °F 14.7 °F 5.0 °F 46% 30.59 in 10.0 mi NW 6.9 mph - N/A   Clear
8:35 PM 21.2 °F 12.6 °F 5.0 °F 50% 30.59 in 10.0 mi WNW 6.9 mph - N/A   Clear
8:55 PM 21.2 °F 12.6 °F 5.0 °F 50% 30.60 in 10.0 mi WNW 6.9 mph - N/A   Clear
9:15 PM 21.2 °F 13.6 °F 5.0 °F 50% 30.60 in 10.0 mi NW 5.8 mph - N/A   Clear
9:35 PM 21.2 °F 12.6 °F 5.0 °F 50% 30.59 in 10.0 mi WNW 6.9 mph - N/A   Clear
9:55 PM 21.2 °F 12.6 °F 3.2 °F 46% 30.59 in 10.0 mi NW 6.9 mph - N/A   Clear
10:15 PM 19.4 °F 10.4 °F 5.0 °F 54% 30.59 in 10.0 mi WNW 6.9 mph - N/A   Clear
10:35 PM 21.2 °F 11.7 °F 3.2 °F 46% 30.59 in 10.0 mi WNW 8.1 mph - N/A   Clear
10:55 PM 19.4 °F 10.4 °F 3.2 °F 49% 30.59 in 10.0 mi WNW 6.9 mph - N/A   Clear
11:15 PM 19.4 °F 11.5 °F 3.2 °F 49% 30.60 in 10.0 mi WNW 5.8 mph - N/A   Clear
11:35 PM 19.4 °F 12.8 °F 3.2 °F 49% 30.59 in 10.0 mi WNW 4.6 mph - N/A   Clear
11:55 PM 19.4 °F 10.4 °F 3.2 °F 49% 30.59 in 10.0 mi West 6.9 mph - N/A   Clear